Date,TemperatureHighF,TemperatureAvgF,TemperatureLowF,DewpointHighF,DewpointAvgF,DewpointLowF,HumidityHigh,HumidityAvg,HumidityLow,PressureMaxIn,PressureMinIn,WindSpeedMaxMPH,WindSpeedAvgMPH,GustSpeedMaxMPH,PrecipitationSumIn
2013-1-1,47.8,44.5,41.0,44.3,34.8,23.8,97,70,46,29.09,29.09,10,1,10,0.20
2013-1-2,50.0,43.6,38.7,44.8,34.5,24.9,98,73,39,29.09,29.09,8,1,8,0.12
2013-1-3,43.9,37.5,27.7,30.9,26.5,22.5,81,65,52,29.09,29.09,5,0,5,0.00
2013-1-4,50.0,34.5,22.6,28.5,17.7,11.3,83,55,27,29.09,29.09,10,2,10,0.00
2013-1-5,51.1,37.1,24.1,32.8,20.5,16.4,76,54,28,29.09,29.09,6,0,6,0.00
2013-1-6,56.3,43.9,37.6,35.2,31.7,26.2,82,64,36,29.09,29.09,10,0,10,0.00
2013-1-7,52.5,42.8,30.2,24.1,21.8,20.4,68,45,31,0.00,0.00,8,1,8,0.00
2013-1-8,54.1,38.5,25.3,36.3,27.7,19.6,83,67,42,0.00,0.00,7,0,7,0.00
2013-1-9,64.9,51.9,36.7,46.2,41.2,31.0,85,68,48,0.00,0.00,10,1,10,0.00
2013-1-10,60.8,49.9,42.4,42.0,33.4,24.2,87,58,26,0.00,0.00,9,0,9,0.00
2013-1-11,46.4,43.6,41.2,45.3,40.6,32.4,98,90,58,0.00,0.00,6,0,6,0.08
2013-1-12,64.4,54.2,45.9,60.1,51.9,45.3,98,92,78,0.00,0.00,6,0,6,0.00
2013-1-13,72.9,59.8,48.7,63.7,53.6,48.2,98,82,53,0.00,0.00,15,1,15,0.00
2013-1-14,62.4,57.9,50.2,61.8,56.7,48.7,98,96,85,0.00,0.00,10,0,10,1.57
2013-1-15,49.8,43.6,40.5,48.7,43.0,39.9,98,97,93,0.00,0.00,8,1,8,1.14
2013-1-16,48.6,43.9,39.6,48.0,43.3,39.0,98,98,98,0.00,0.00,8,0,8,0.55
2013-1-17,48.7,42.1,33.8,48.2,41.4,33.1,98,97,86,0.00,0.00,13,2,13,1.69
2013-1-18,44.8,35.2,28.8,36.4,27.9,19.1,98,78,38,0.00,0.00,6,0,6,0.39
2013-1-19,51.6,36.5,25.7,34.2,24.7,21.5,91,66,31,0.00,0.00,10,1,10,0.00
2013-1-20,59.9,39.3,30.4,32.3,26.1,19.1,84,62,27,0.00,0.00,13,1,13,0.08
2013-1-21,58.3,41.3,27.5,33.8,21.2,8.7,84,50,25,0.00,0.00,13,2,13,0.00
2013-1-22,38.3,31.6,24.3,8.7,-0.1,-6.0,31,25,21,0.00,0.00,12,3,12,0.00
2013-1-23,40.5,29.7,22.3,13.0,3.5,-6.0,52,33,26,0.00,0.00,13,2,13,0.08
2013-1-24,35.8,30.6,22.8,18.4,6.8,-1.6,62,37,27,0.00,0.00,16,2,16,0.08
2013-1-25,27.0,23.9,20.3,21.0,10.6,-1.5,79,58,34,0.00,0.00,10,1,10,0.08
2013-1-26,39.2,30.0,21.4,29.8,20.4,15.7,89,69,48,0.00,0.00,6,0,6,0.08
2013-1-27,42.6,33.3,25.5,24.9,18.7,13.4,69,55,41,0.00,0.00,9,1,9,0.08
2013-1-28,51.6,42.2,34.0,38.3,32.2,24.3,89,69,41,0.00,0.00,12,2,12,0.08
2013-1-29,70.3,53.7,42.1,51.5,44.0,37.5,98,74,33,0.00,0.00,13,1,13,0.00
2013-1-30,71.1,65.3,55.6,63.9,57.5,50.2,97,77,50,0.00,0.00,23,5,23,0.83
2013-1-31,55.6,43.4,32.0,52.4,23.6,11.6,91,48,28,0.00,0.00,17,4,17,0.20
2013-2-1,38.1,32.3,22.5,22.7,8.1,0.6,59,37,24,0.00,0.00,18,4,18,0.20
2013-2-2,39.4,30.0,18.0,18.9,9.8,4.0,65,44,29,0.00,0.00,11,1,11,0.20
2013-2-3,49.6,39.2,30.2,24.2,18.0,11.8,72,44,31,0.00,0.00,17,3,17,0.20
2013-2-4,46.6,36.0,26.1,21.6,16.0,12.0,64,45,30,0.00,0.00,9,1,9,0.00
2013-2-5,61.5,45.7,35.8,29.2,23.9,19.5,61,43,27,0.00,0.00,11,2,11,0.00
2013-2-6,61.9,43.7,30.4,34.0,23.5,18.2,81,49,24,0.00,0.00,8,1,8,0.00
2013-2-7,44.4,38.5,33.1,36.0,27.3,20.3,97,66,44,0.00,0.00,9,2,9,0.47
2013-2-8,58.1,44.0,35.8,42.4,32.1,17.6,98,68,35,0.00,0.00,19,3,19,0.20
2013-2-9,55.6,40.3,28.6,20.5,16.1,11.8,66,40,20,0.00,0.00,13,2,15,0.00
2013-2-10,54.3,39.1,25.5,36.2,19.3,14.1,80,48,26,0.00,0.00,10,1,10,0.20
2013-2-11,55.0,47.6,40.8,54.5,46.1,36.2,98,94,80,0.00,0.00,10,1,10,0.08
2013-2-12,62.6,49.4,37.4,48.4,31.0,20.5,98,56,24,0.00,0.00,8,1,8,0.00
2013-2-13,47.1,44.8,36.0,46.0,41.8,29.4,98,89,62,0.00,0.00,10,0,10,0.31
2013-2-14,36.0,34.4,32.7,31.4,30.0,29.2,87,84,77,0.00,0.00,2,0,4,0.00
2013-2-16,40.6,36.7,28.9,25.1,15.5,7.8,59,42,32,0.00,0.00,12,2,12,0.00
2013-2-17,40.5,30.2,21.9,9.2,4.9,-0.1,50,34,23,0.00,0.00,15,4,15,0.00
2013-2-18,57.0,31.3,16.7,21.6,11.9,5.7,68,47,25,0.00,0.00,10,1,10,0.00
2013-2-19,46.8,40.1,36.0,44.2,28.1,11.2,96,65,29,0.00,0.00,13,1,13,0.08
2013-2-20,56.5,41.5,27.9,16.5,11.4,4.5,62,31,17,0.00,0.00,15,3,15,0.00
2013-2-21,57.9,40.8,25.5,19.9,13.7,6.4,61,35,19,0.00,0.00,8,1,8,0.00
2013-2-22,43.2,36.8,33.3,33.0,25.8,14.3,90,66,31,0.00,0.00,7,0,7,0.08
2013-2-23,48.0,40.4,35.4,42.5,38.0,33.0,98,92,76,0.00,0.00,7,0,7,0.20
2013-2-24,64.6,49.1,34.3,44.8,28.5,14.8,98,54,23,0.00,0.00,13,2,13,0.00
2013-2-25,45.1,37.9,32.0,20.8,17.6,14.2,62,44,29,0.00,0.00,8,1,8,0.00
2013-2-26,39.6,36.4,32.2,39.0,31.3,17.8,98,84,49,0.00,0.00,10,2,10,0.91
2013-2-27,60.8,46.7,39.0,46.0,35.3,27.3,98,70,30,0.00,0.00,10,1,10,0.00
2013-2-28,49.5,41.9,34.7,39.7,26.0,17.7,92,57,31,0.00,0.00,13,3,13,0.00
2013-3-1,45.3,41.0,36.7,29.2,21.9,17.0,69,47,38,0.00,0.00,9,2,9,0.00
2013-3-2,47.8,39.2,31.8,21.5,16.3,10.5,55,39,31,0.00,0.00,15,2,15,0.00
2013-3-3,45.3,35.6,26.8,16.3,11.8,8.4,56,37,30,0.00,0.00,13,3,13,0.00
2013-3-4,56.7,38.3,26.1,16.3,11.4,6.8,50,34,20,0.00,0.00,11,2,11,0.00
2013-3-5,55.9,42.1,33.1,42.5,30.0,14.6,98,65,36,0.00,0.00,10,1,10,0.59
2013-3-6,50.4,40.7,36.3,38.5,25.1,18.0,96,57,33,0.00,0.00,22,5,22,0.16
2013-3-7,52.2,41.5,32.2,25.7,21.2,16.8,64,45,32,0.00,0.00,17,3,17,0.00
2013-3-8,57.6,43.0,29.8,28.6,20.6,15.9,76,45,24,0.00,0.00,13,2,13,0.00
2013-3-9,66.6,46.2,28.6,28.2,23.0,18.9,73,43,23,0.00,0.00,9,1,9,0.00
2013-3-10,70.9,49.9,31.3,32.5,26.1,22.6,75,44,22,0.00,40.00,6,1,9,0.00
2013-3-11,65.7,52.9,37.9,50.7,35.9,25.3,72,53,42,0.00,0.00,14,2,14,0.00
2013-3-12,68.2,58.1,46.2,58.4,42.3,21.6,98,62,26,0.00,0.00,10,2,15,0.71
2013-3-13,56.5,45.5,35.1,27.5,18.9,8.7,68,36,26,0.00,0.00,16,4,16,0.00
2013-3-14,56.5,41.1,30.7,19.4,13.1,7.9,49,33,20,0.00,0.00,14,3,14,0.00
2013-3-15,65.1,46.4,28.9,30.1,22.9,16.5,66,42,24,0.00,0.00,15,2,15,0.00
2013-3-16,80.6,58.4,39.4,48.0,37.3,29.3,80,50,22,0.00,0.00,17,2,17,0.00
2013-3-17,57.7,47.4,38.8,51.4,40.8,34.0,96,79,57,0.00,0.00,11,2,12,0.00
2013-3-18,39.7,38.0,36.5,38.2,36.9,35.1,98,96,87,0.00,0.00,8,2,8,0.24
2013-3-19,67.5,49.2,35.6,48.8,27.3,7.0,98,57,17,0.00,0.00,15,3,15,0.04
2013-3-20,62.6,46.8,31.1,20.6,14.6,4.5,55,29,16,0.00,0.00,13,2,13,0.04
2013-3-21,49.5,45.0,40.5,21.1,17.7,13.0,45,34,24,0.00,0.00,13,3,13,0.00
2013-3-23,58.1,49.9,39.7,27.8,25.0,22.1,62,40,27,0.00,0.00,6,1,6,0.00
2013-3-24,39.7,36.7,34.9,37.2,31.9,25.9,97,84,61,0.00,0.00,11,1,11,0.47
2013-3-25,47.1,39.2,33.8,39.5,25.6,15.1,98,64,30,0.00,0.00,14,3,14,0.04
2013-3-26,48.4,39.9,31.3,29.0,20.4,17.2,75,47,31,0.00,0.00,15,2,15,0.00
2013-3-27,52.0,39.8,28.8,24.7,18.5,13.7,75,45,27,0.00,0.00,17,2,17,0.47
2013-3-28,58.1,41.8,26.6,27.3,18.9,14.6,76,43,24,0.00,0.00,17,3,17,0.47
2013-3-29,66.6,45.9,26.6,27.3,20.9,17.0,72,41,18,0.00,0.00,9,1,10,0.00
2013-3-30,70.5,52.0,35.6,31.1,25.1,22.0,67,38,19,0.00,0.00,11,1,11,0.00
2013-3-31,65.8,53.5,44.4,54.8,44.4,25.8,97,73,43,0.00,0.00,12,1,12,0.47
2013-4-1,72.1,57.9,43.5,53.3,36.9,24.4,93,53,23,0.00,0.00,17,3,17,0.00
2013-4-2,63.7,49.7,34.3,25.6,19.5,12.2,67,33,18,0.00,0.00,13,2,13,0.00
2013-4-3,64.2,48.0,31.3,21.6,15.4,9.7,55,29,18,0.00,0.00,10,1,11,0.00
2013-4-4,48.2,40.2,35.6,35.6,21.0,9.6,98,53,28,0.00,0.00,10,2,10,0.94
2013-4-5,68.5,49.9,35.8,49.5,35.1,25.1,98,66,23,0.00,0.00,12,1,12,0.08
2013-4-6,69.3,52.0,35.6,34.8,27.6,21.7,80,44,22,0.00,0.00,10,1,10,0.00
2013-4-7,75.7,58.0,40.3,38.2,33.6,26.1,77,43,22,0.00,0.00,15,2,15,0.00
2013-4-8,83.8,64.3,46.2,51.4,42.0,36.2,83,49,21,0.00,0.00,15,2,15,0.00
2013-4-9,89.8,70.2,51.6,53.0,45.0,38.6,81,46,18,0.00,0.00,14,1,14,0.47
2013-4-10,93.0,75.0,59.9,54.7,48.2,40.8,73,44,18,0.00,0.00,13,2,13,0.00
2013-4-11,85.5,72.4,61.3,57.3,51.8,47.1,76,51,29,0.00,0.00,17,2,17,0.00
2013-4-12,86.9,71.6,58.5,69.2,52.6,28.7,98,58,23,0.00,0.00,17,3,17,0.91
2013-4-13,79.9,63.4,46.6,39.2,32.9,26.3,67,35,18,0.00,0.00,10,2,10,0.00
2013-4-14,84.0,63.8,42.4,44.3,35.0,30.3,79,40,16,0.00,0.00,10,1,10,0.00
2013-4-15,69.4,61.2,55.9,56.0,52.4,40.1,94,74,37,0.00,0.00,10,1,10,0.16
2013-4-16,81.3,67.8,59.7,58.8,53.8,47.8,89,64,33,0.00,0.00,9,1,9,0.00
2013-4-17,80.2,66.3,57.4,63.5,55.7,48.1,90,71,34,0.00,0.00,6,0,6,0.00
2013-4-18,83.5,70.3,60.6,61.8,53.3,44.5,91,60,29,0.00,0.00,11,2,11,0.00
2013-4-19,77.7,69.0,57.6,66.0,60.0,46.3,97,74,53,0.00,0.00,18,3,18,0.63
2013-4-20,68.9,55.6,44.8,46.4,29.2,22.5,68,39,22,0.00,0.00,14,2,14,0.00
2013-4-21,66.0,51.2,39.9,35.7,29.4,22.6,77,47,25,0.00,0.00,17,1,17,0.00
2013-4-22,67.8,52.6,38.5,35.5,29.0,22.1,77,45,20,0.00,0.00,13,2,13,0.00
2013-4-23,74.1,59.3,48.7,46.0,39.0,31.0,72,49,28,0.00,0.00,8,1,8,0.00
2013-4-24,76.5,62.8,47.3,55.0,46.3,42.4,94,59,32,0.00,0.00,18,2,18,0.00
2013-4-25,76.1,60.1,47.7,51.5,31.8,22.9,68,37,16,0.00,0.00,11,2,11,0.00
2013-4-26,75.7,57.3,38.7,40.7,32.4,25.9,77,44,18,0.00,0.00,10,1,10,0.00
2013-4-27,74.7,60.6,51.8,53.1,44.0,37.9,85,57,28,0.00,0.00,6,0,6,0.00
2013-4-28,57.7,56.1,54.1,55.9,53.9,52.0,98,92,86,0.00,0.00,6,0,6,0.98
2013-4-29,70.7,59.5,54.1,59.5,55.4,50.2,98,87,53,0.00,0.00,6,0,6,0.55
2013-4-30,72.1,61.6,55.4,58.4,54.1,50.0,98,79,47,0.00,0.00,8,1,8,0.00
2013-5-1,71.2,61.8,57.0,55.8,51.1,45.4,89,70,41,0.00,0.00,10,2,10,0.00
2013-5-2,64.4,59.0,54.7,53.7,47.9,39.6,86,67,50,0.00,0.00,9,1,9,0.00
2013-5-3,72.1,59.3,48.0,52.4,44.5,35.1,93,62,32,0.00,0.00,10,1,10,0.00
2013-5-4,66.0,55.7,49.6,47.8,40.7,36.7,73,58,36,0.00,0.00,10,2,10,0.00
2013-5-5,57.4,54.3,49.8,53.4,43.8,35.4,93,68,53,0.00,0.00,12,2,12,0.04
2013-5-6,65.7,58.4,55.0,65.1,57.4,53.4,98,96,87,0.00,0.00,12,1,12,0.94
2013-5-7,73.6,60.6,54.9,61.1,53.0,40.0,98,79,37,0.00,0.00,10,1,10,0.00
2013-5-8,63.3,58.0,52.9,60.8,55.2,50.3,95,90,80,0.00,0.00,4,0,4,0.08
2013-5-9,81.7,61.1,47.7,64.9,53.5,45.8,98,80,31,0.00,0.00,6,0,7,0.00
2013-5-10,86.2,69.8,54.5,62.5,53.9,47.6,94,63,28,0.00,0.00,10,1,10,0.00
2013-5-11,82.2,71.6,64.2,61.4,57.4,49.1,87,64,34,0.00,0.00,13,1,13,0.00
2013-5-12,76.3,64.2,51.6,60.8,38.4,23.2,88,43,21,0.00,0.00,10,2,10,0.00
2013-5-13,72.1,52.9,39.2,42.5,30.9,24.8,82,48,22,0.00,0.00,8,1,8,0.00
2013-5-23,79.2,71.3,65.1,67.8,64.1,58.4,97,79,56,0.00,0.00,7,0,7,0.16
2013-5-24,71.6,63.6,50.5,62.0,44.7,26.0,96,57,25,0.00,0.00,17,2,17,0.00
2013-5-25,79.0,60.0,44.4,39.6,32.7,25.9,76,41,20,0.00,0.00,9,1,9,0.00
2013-5-26,82.2,64.0,50.4,47.6,39.6,27.7,69,44,20,0.00,0.00,8,1,8,0.00
2013-5-27,84.4,67.0,51.4,53.8,47.6,38.8,87,55,25,0.00,0.00,8,1,8,0.00
2013-5-28,89.2,73.3,59.7,63.1,55.6,50.2,90,58,28,0.00,0.00,11,1,11,0.00
2013-5-29,91.4,76.0,64.2,62.7,56.8,50.3,89,56,27,0.00,0.00,8,1,8,0.00
2013-5-30,91.8,74.9,61.3,65.6,56.2,48.7,92,57,26,0.00,0.00,8,1,8,0.00
2013-5-31,91.6,75.4,62.1,67.4,57.6,51.8,90,59,27,0.00,0.00,9,1,9,0.00
2013-6-1,93.9,77.8,65.7,68.2,57.7,46.8,91,56,21,0.00,0.00,11,2,11,0.00
2013-6-2,86.4,73.4,68.5,68.2,63.1,58.3,97,72,41,0.00,0.00,10,1,10,1.54
2013-6-3,88.0,73.2,68.0,75.0,67.9,56.0,98,86,35,0.00,0.00,9,0,9,1.85
2013-6-4,80.1,69.9,62.2,68.7,62.2,55.7,97,79,48,0.00,0.00,8,0,8,0.00
2013-6-5,78.4,68.8,62.1,65.2,60.3,52.1,95,76,46,0.00,0.00,5,0,5,0.00
2013-6-6,72.0,68.0,64.8,71.4,66.7,62.6,98,96,88,0.00,0.00,6,0,6,2.28
2013-6-7,74.8,70.6,67.8,73.6,69.6,67.2,98,97,91,0.00,0.00,10,0,10,0.24
2013-6-8,86.2,72.8,64.2,68.7,62.9,52.3,98,76,32,0.00,0.00,7,0,7,0.28
2013-6-9,91.4,76.1,64.9,71.4,64.6,55.0,96,72,31,0.00,0.00,10,1,10,0.04
2013-6-10,83.3,74.0,69.4,75.0,69.5,66.1,98,86,59,0.00,0.00,11,1,11,0.16
2013-6-11,85.8,73.2,67.6,68.8,65.0,57.5,98,79,41,0.00,0.00,8,0,8,0.00
2013-6-12,94.3,83.0,75.2,76.6,70.2,62.2,92,68,38,0.00,0.00,9,1,9,0.24
2013-6-13,95.5,78.7,68.0,77.7,69.1,57.0,98,78,28,0.00,0.00,13,1,13,0.31
2013-6-14,82.6,73.7,65.1,59.7,54.3,47.1,81,53,32,0.00,0.00,9,1,9,0.00
2013-6-15,88.3,71.9,58.1,64.8,55.6,47.5,93,62,26,0.00,0.00,8,0,8,0.00
2013-6-16,90.5,75.9,64.2,66.8,61.0,54.8,91,63,32,0.00,0.00,10,1,10,0.00
2013-6-17,87.4,76.2,70.3,72.8,67.6,59.4,93,77,41,0.00,0.00,10,0,10,0.08
2013-6-18,71.1,70.4,69.3,69.6,68.9,67.6,96,95,95,0.00,0.00,0,0,0,0.67
2013-6-19,83.7,72.4,62.8,71.5,63.5,56.7,98,77,42,0.00,0.00,8,0,8,0.00
2013-6-20,84.7,71.7,65.3,67.7,62.7,53.0,96,76,38,0.00,0.00,6,0,6,0.00
2013-6-21,89.1,72.9,61.0,62.3,55.7,47.3,92,60,29,0.00,0.00,8,1,8,0.00
2013-6-22,89.6,73.4,62.6,67.3,62.3,55.8,92,71,37,0.00,0.00,7,1,7,0.00
2013-6-23,93.0,78.8,69.1,71.2,63.8,53.4,93,65,29,0.00,0.00,8,1,8,0.00
2013-6-24,93.6,78.2,68.7,71.2,66.3,58.2,92,70,33,0.00,0.00,8,1,13,0.20
2013-6-25,93.0,79.6,69.6,74.8,67.9,58.7,98,71,32,0.00,0.00,10,0,10,0.08
2013-6-26,93.4,75.0,70.2,70.8,68.0,62.2,95,81,37,0.00,0.00,6,0,14,0.71
2013-6-27,88.7,76.7,68.7,74.8,69.7,61.1,98,81,43,0.00,0.00,9,1,9,0.00
2013-6-28,94.5,79.5,70.5,75.1,67.4,58.2,97,70,32,0.00,0.00,10,1,10,0.67
2013-6-29,91.9,78.2,69.4,71.0,64.2,54.1,95,66,30,0.00,0.00,8,1,8,0.67
2013-6-30,91.6,76.8,71.2,72.2,67.4,59.9,92,75,37,0.00,0.00,9,1,9,0.67
2013-7-1,87.8,76.5,70.3,73.3,67.0,59.3,98,75,41,0.00,0.00,9,1,9,0.67
2013-7-2,79.5,74.4,72.1,73.5,69.5,65.8,95,85,68,0.00,0.00,13,1,13,0.67
2013-7-3,80.1,74.8,72.0,77.2,73.1,69.6,98,95,85,0.00,0.00,5,0,8,0.75
2013-7-4,89.8,77.9,72.9,77.0,71.5,62.5,98,83,42,0.00,0.00,9,1,9,0.67
2013-7-5,88.7,78.1,71.4,76.4,70.0,62.9,98,78,44,0.00,0.00,9,1,9,0.67
2013-7-6,90.5,78.5,70.5,76.2,68.5,58.5,98,75,36,0.00,0.00,7,1,8,0.28
2013-7-7,88.9,76.9,72.0,77.2,71.2,62.5,98,85,43,0.00,0.00,10,1,10,0.43
2013-7-8,90.0,77.8,70.7,75.4,69.4,59.2,98,78,38,0.00,0.00,6,0,6,0.28
2013-7-9,92.7,80.0,71.6,76.5,70.5,61.7,97,76,40,0.00,0.00,6,0,6,0.67
2013-7-10,90.7,79.6,71.8,73.9,70.3,63.5,95,75,43,0.00,0.00,8,1,8,0.00
2013-7-11,89.1,76.7,72.3,72.1,70.1,62.8,98,82,42,0.00,0.00,6,0,6,0.67
2013-7-12,78.1,72.6,69.8,71.9,67.4,61.4,98,85,60,0.00,0.00,8,1,8,1.54
2013-7-13,79.3,73.3,69.4,72.2,69.2,65.3,97,87,71,0.00,0.00,7,0,7,0.04
2013-7-14,91.6,79.3,72.7,72.6,68.1,58.1,96,72,37,0.00,0.00,6,1,6,0.00
2013-7-15,93.9,79.7,70.0,76.3,67.5,57.5,95,70,31,0.00,0.00,5,0,5,0.00
2013-7-16,96.3,80.8,68.0,76.0,68.1,58.4,94,69,30,0.00,0.00,6,0,6,0.00
2013-7-17,96.1,82.2,73.4,75.0,70.4,60.8,91,70,34,0.00,0.00,6,0,6,0.00
2013-7-18,97.0,82.4,72.1,77.4,70.4,60.0,95,71,32,0.00,0.00,6,0,6,0.00
2013-7-19,95.5,83.1,74.7,75.8,70.1,61.4,93,68,36,0.00,0.00,9,1,9,0.00
2013-7-20,92.3,80.4,74.7,72.7,69.0,59.1,88,70,38,0.00,0.00,8,1,8,0.00
2013-7-21,75.4,74.3,73.4,70.2,69.8,69.3,87,86,84,0.00,0.00,4,0,4,0.00
2013-7-22,91.0,82.4,74.3,74.8,68.8,61.7,98,66,39,0.00,0.00,8,1,8,0.08
2013-7-23,92.3,79.6,72.1,73.6,69.0,60.2,92,73,35,0.00,0.00,7,0,7,0.00
2013-7-24,92.3,78.9,69.1,74.2,65.4,56.4,95,67,34,0.00,0.00,6,0,6,0.00
2013-7-25,85.1,75.6,67.6,66.7,61.7,55.3,90,64,39,0.00,0.00,7,1,7,0.16
2013-7-26,87.4,74.6,66.0,67.3,61.3,53.7,92,67,33,0.00,0.00,8,0,8,0.16
2013-7-27,73.2,70.8,68.5,71.6,68.4,64.4,98,92,81,0.00,0.00,5,0,5,0.63
2013-7-28,88.9,75.8,69.3,75.9,68.1,58.7,98,80,39,0.00,0.00,6,0,6,0.00
2013-7-29,87.8,74.4,66.6,69.3,62.1,50.7,98,71,29,0.00,0.00,6,0,6,0.20
2013-7-30,85.6,72.5,61.5,66.9,60.3,47.8,91,69,30,0.00,0.00,5,0,5,0.16
2013-7-31,77.9,73.0,69.1,71.9,68.1,63.7,96,85,63,0.00,0.00,6,0,6,0.16
2013-8-1,86.9,75.8,70.2,75.0,70.2,63.1,98,84,47,0.00,0.00,4,0,5,0.16
2013-8-2,90.1,76.7,66.7,71.3,63.5,51.5,95,69,29,0.00,0.00,5,0,5,0.00
2013-8-3,90.5,77.4,68.9,72.3,67.4,57.5,94,74,36,0.00,0.00,5,0,5,0.00
2013-8-4,88.2,77.3,70.9,72.2,63.2,49.6,95,66,29,0.00,0.00,10,1,10,0.16
2013-8-5,84.4,73.4,64.9,66.8,59.4,51.7,88,64,34,0.00,0.00,6,0,8,0.08
2013-8-6,81.7,73.4,66.4,68.4,64.7,60.6,94,75,52,0.00,0.00,9,1,9,0.16
2013-8-7,84.2,75.5,70.0,69.7,66.7,61.6,91,76,48,0.00,0.00,9,1,9,0.00
2013-8-8,88.2,76.9,70.7,73.5,69.4,63.8,94,79,46,0.00,0.00,8,1,8,0.16
2013-8-9,93.6,80.1,71.8,77.6,70.4,63.1,98,75,39,0.00,0.00,8,1,8,0.00
2013-8-10,93.6,77.7,72.5,75.7,71.1,63.1,97,82,38,0.00,0.00,9,0,9,0.12
2013-8-11,91.6,76.4,71.2,77.7,72.3,64.0,98,88,43,0.00,0.00,6,0,6,0.51
2013-8-12,92.8,79.4,70.9,77.7,70.8,59.1,98,78,33,0.00,0.00,9,0,9,0.43
2013-8-13,88.2,75.9,70.2,75.5,70.2,64.3,98,84,50,0.00,0.00,8,0,8,0.35
2013-8-14,81.1,71.3,63.9,70.4,58.0,45.6,94,67,30,0.00,0.00,8,0,8,0.00
2013-8-15,80.2,67.0,59.2,59.5,53.6,43.3,91,66,32,0.00,0.00,8,0,8,0.00
2013-8-16,73.8,64.1,55.9,62.4,54.4,48.3,93,73,42,0.00,0.00,6,0,6,0.00
2013-8-17,66.9,63.4,59.5,64.7,60.7,55.2,98,91,78,0.00,0.00,8,0,8,1.22
2013-8-18,75.0,68.4,65.3,70.3,65.8,63.6,98,92,71,0.00,0.00,6,0,6,0.35
2013-8-19,75.2,69.4,66.2,70.8,67.0,64.8,98,92,76,0.00,0.00,6,0,6,0.24
2013-8-20,86.5,73.5,65.5,74.5,67.7,62.0,98,84,46,0.00,0.00,5,0,5,0.00
2013-8-21,71.1,69.7,69.4,68.3,67.6,67.0,95,93,91,0.00,0.00,0,0,0,0.00
2013-8-22,91.6,80.9,72.3,74.4,69.4,60.3,96,71,38,0.00,0.00,5,0,6,0.16
2013-8-23,72.3,69.1,66.0,69.6,65.8,62.4,92,89,86,0.00,0.00,4,0,4,0.31
2013-8-24,85.8,70.6,60.8,67.1,58.2,47.3,97,70,29,0.00,0.00,9,1,9,0.00
2013-8-25,82.0,66.6,59.0,67.0,57.6,51.5,95,76,36,0.00,0.00,6,0,6,0.00
2013-8-30,89.1,79.2,70.3,70.8,64.3,54.9,94,64,33,0.00,0.00,6,0,6,0.00
2013-8-31,90.5,76.2,67.8,70.2,66.3,58.9,93,74,39,0.00,0.00,8,1,8,0.04
2013-9-1,90.9,76.5,69.1,73.4,68.9,62.1,98,80,41,0.00,0.00,8,1,8,0.04
2013-9-2,90.7,77.6,70.0,73.8,69.4,63.2,98,79,42,0.00,0.00,5,0,5,0.00
2013-9-3,91.2,78.2,69.8,74.4,65.3,54.1,95,69,32,0.00,0.00,6,0,6,0.00
2013-9-4,88.2,72.8,62.1,62.4,57.7,50.3,89,63,30,0.00,0.00,6,0,6,0.00
2013-9-5,89.8,72.7,59.9,66.9,56.9,48.2,92,63,28,0.00,0.00,5,0,5,0.00
2013-9-6,84.4,70.4,60.8,59.2,53.6,45.6,85,60,27,0.00,0.00,6,0,6,0.00
2013-9-7,85.3,76.4,66.9,62.5,57.1,50.9,81,54,32,0.00,0.00,8,1,8,0.00
2013-9-8,89.8,74.2,63.0,68.4,61.6,53.7,92,69,30,0.00,0.00,6,0,6,0.00
2013-9-9,87.1,73.1,66.4,69.0,64.5,59.4,92,77,40,0.00,0.00,6,1,6,0.00
2013-9-13,84.9,73.5,63.3,68.7,50.6,37.6,94,51,21,0.00,0.00,12,2,12,0.20
2013-9-14,80.2,64.7,54.5,51.6,45.8,40.1,80,53,25,0.00,0.00,8,1,8,0.00
2013-9-15,82.6,64.6,50.4,59.0,51.0,45.4,88,65,30,0.00,0.00,8,1,8,0.00
2013-9-16,83.8,69.4,58.3,64.4,55.8,49.3,91,65,36,0.00,0.00,6,1,6,0.00
2013-9-17,79.3,65.2,55.9,54.8,48.3,37.5,85,58,25,0.00,0.00,9,1,9,0.00
2013-9-18,76.1,62.5,53.1,56.3,48.1,40.4,83,63,31,0.00,0.00,8,0,8,0.00
2013-9-19,75.6,67.0,60.4,62.8,56.4,47.3,90,71,39,0.00,0.00,6,0,6,0.00
2013-9-20,70.0,67.7,65.8,68.1,65.7,62.5,98,93,85,0.00,0.00,6,0,6,0.39
2013-9-21,73.8,68.2,64.0,69.9,66.8,62.6,98,95,84,0.00,0.00,12,0,12,0.35
2013-9-22,78.4,65.9,58.3,62.6,55.1,43.5,98,73,32,0.00,0.00,9,1,9,0.00
2013-9-23,75.7,62.9,56.3,56.5,49.6,39.5,91,66,32,0.00,0.00,6,0,6,0.00
2013-9-24,80.6,64.9,55.2,57.0,52.9,46.3,93,69,33,0.00,0.00,6,0,6,0.00
2013-9-25,67.6,62.1,54.1,63.5,58.1,50.5,97,87,73,0.00,0.00,3,0,3,0.04
2013-9-26,78.1,65.1,56.8,64.8,54.9,38.1,98,75,25,0.00,0.00,6,0,6,0.00
2013-9-27,78.8,62.4,50.9,60.2,49.4,43.2,92,67,30,0.00,0.00,8,0,8,0.00
2013-9-28,72.0,60.6,52.9,59.3,49.5,41.6,92,70,35,0.00,0.00,7,1,7,0.00
2013-9-29,76.1,60.9,51.6,59.4,48.6,41.3,93,68,32,0.00,0.00,6,0,6,0.00
2013-9-30,80.4,61.8,49.6,56.6,48.1,40.8,91,66,26,0.00,0.00,5,0,5,0.00
2013-10-1,85.6,66.3,52.3,61.6,52.2,45.8,89,66,27,0.00,0.00,6,0,6,0.00
2013-10-2,87.8,68.2,54.1,63.2,53.6,47.7,89,65,27,0.00,0.00,6,0,6,0.00
2013-10-3,87.8,69.6,57.7,64.6,55.7,46.5,89,66,24,0.00,0.00,7,0,7,0.00
2013-10-4,89.1,70.7,59.0,63.7,57.4,49.4,90,67,28,0.00,0.00,6,0,6,0.00
2013-10-5,90.3,72.6,60.4,66.6,58.6,48.5,89,66,26,0.00,0.00,7,0,7,0.00
2013-10-6,86.7,71.7,61.0,64.5,57.1,49.9,89,64,29,0.00,0.00,10,1,10,0.00
2013-10-7,75.7,68.9,59.0,70.2,62.7,48.0,98,81,60,0.00,0.00,11,1,11,0.79
2013-10-8,70.2,60.0,53.8,48.0,41.9,36.1,71,53,30,0.00,0.00,11,1,11,0.00
2013-10-9,71.4,60.2,53.8,45.0,42.4,33.7,71,53,27,0.00,0.00,11,2,11,0.00
2013-10-10,69.1,60.8,54.9,60.5,53.1,41.9,96,76,55,0.00,0.00,8,1,8,0.12
2013-10-11,74.3,66.7,61.7,60.7,56.8,49.7,88,72,44,0.00,0.00,6,0,6,0.00
2013-10-12,68.9,65.8,63.1,63.0,59.1,55.2,90,79,64,0.00,0.00,8,0,8,0.00
2013-10-13,66.6,63.7,61.2,63.7,61.3,57.6,98,92,83,0.00,0.00,6,0,6,0.16
2013-10-14,66.0,61.7,57.0,60.8,57.3,52.6,98,86,67,0.00,0.00,7,1,7,0.00
2013-10-15,74.7,62.3,52.5,57.3,51.0,40.3,95,71,31,0.00,0.00,8,1,8,0.00
2013-10-16,77.4,66.2,60.8,59.2,54.0,44.2,87,68,33,0.00,0.00,7,0,7,0.00
2013-10-17,68.0,64.2,59.7,64.8,61.4,56.5,97,91,81,0.00,0.00,7,0,7,0.04
2013-10-18,71.2,59.9,50.2,63.1,46.4,35.7,98,65,32,0.00,0.00,6,1,6,0.00
2013-10-19,61.3,56.1,52.0,59.3,53.5,47.3,95,91,82,0.00,0.00,4,0,4,0.04
2013-10-20,68.5,53.9,43.5,51.2,35.3,26.8,94,54,23,0.00,0.00,8,1,8,0.00
2013-10-21,70.7,52.0,36.0,47.3,38.5,30.9,86,64,32,0.00,0.00,10,1,10,0.00
2013-10-22,70.9,59.4,52.7,56.2,48.3,41.0,92,70,35,0.00,0.00,6,0,6,0.00
2013-10-23,69.3,56.6,45.1,51.9,37.3,22.0,88,54,23,0.00,0.00,14,2,14,0.00
2013-10-24,61.7,45.3,33.1,34.7,26.0,20.6,79,51,25,0.00,0.00,13,1,13,0.00
2013-10-25,58.1,44.5,33.6,36.4,24.9,16.7,81,50,25,0.00,0.00,10,1,10,0.00
2013-10-26,61.2,44.1,27.3,29.0,23.5,20.0,76,48,24,0.00,0.00,11,1,11,0.00
2013-10-27,70.3,53.3,38.1,38.7,31.0,26.7,74,46,23,0.00,0.00,8,1,8,0.00
2013-10-28,69.1,53.6,40.6,49.4,41.8,33.8,84,67,34,0.00,0.00,5,0,5,0.00
2013-10-29,73.9,60.5,52.0,56.6,45.9,39.7,91,63,31,0.00,0.00,6,0,6,0.00
2013-10-30,76.3,62.2,53.6,54.9,50.1,44.3,87,67,33,0.00,0.00,9,0,9,0.00
2013-10-31,72.0,64.7,56.5,57.0,51.0,45.5,88,63,39,0.00,0.00,11,1,11,0.00
2013-11-1,70.0,66.6,56.8,64.4,57.6,53.0,90,74,57,0.00,0.00,15,2,15,0.20
2013-11-2,73.0,59.9,48.7,57.0,41.1,23.7,95,59,22,0.00,0.00,14,1,14,0.00
2013-11-3,65.8,49.9,39.9,37.9,29.6,22.6,76,49,23,0.00,0.00,11,1,11,0.00
2013-11-4,57.0,44.3,33.6,30.1,25.1,20.1,78,50,27,0.00,0.00,8,1,8,0.00
2013-11-5,60.4,48.5,36.1,36.7,28.8,21.7,65,47,36,0.00,0.00,8,0,8,0.00
2013-11-6,73.2,58.3,50.4,44.6,40.6,35.9,75,54,31,0.00,0.00,8,0,8,0.00
2013-11-7,64.6,52.9,43.5,51.4,37.3,21.6,87,59,27,0.00,0.00,11,1,11,0.00
2013-11-8,58.5,43.6,32.2,29.0,20.6,15.1,69,42,22,0.00,0.00,10,1,10,0.00
2013-11-9,55.9,40.8,27.7,27.1,21.4,18.5,74,49,26,0.00,0.00,9,1,9,0.00
2013-11-10,72.1,51.3,33.4,34.6,24.5,16.3,75,41,17,0.00,0.00,12,2,12,0.00
2013-11-11,61.0,45.3,30.7,25.1,20.8,15.9,63,40,24,0.00,0.00,8,1,8,0.00
2013-11-12,58.5,42.0,31.8,31.6,21.9,6.5,69,46,28,0.00,0.00,12,2,12,0.00
2013-11-13,49.6,34.6,23.7,16.4,11.3,6.5,60,39,24,0.00,0.00,10,1,10,0.00
2013-11-14,61.5,39.3,22.8,20.6,14.3,9.9,65,40,16,0.00,0.00,11,1,11,0.00
2013-11-15,60.3,44.4,27.5,44.8,24.5,13.7,80,48,26,0.00,0.00,8,0,8,0.00
2013-11-16,58.1,54.0,50.5,54.0,50.5,44.8,95,88,79,0.00,0.00,4,0,4,0.00
2013-11-17,65.1,59.5,55.6,62.8,56.4,53.0,98,90,68,0.00,0.00,8,0,8,0.04
2013-11-18,72.0,62.2,49.6,64.4,41.3,17.4,98,56,20,0.00,0.00,16,2,16,0.08
2013-11-19,49.8,46.5,39.9,21.7,18.5,16.0,44,33,28,0.00,0.00,13,2,13,0.00
2013-11-20,54.1,44.5,36.1,24.6,20.2,17.4,55,39,27,0.00,0.00,9,2,9,0.00
2013-11-21,56.3,47.7,39.4,39.2,31.7,23.8,67,54,42,0.00,0.00,6,0,6,0.00
2013-11-22,65.8,56.6,49.6,56.5,46.9,38.8,91,70,57,0.00,0.00,10,1,10,0.00
2013-11-23,61.2,53.7,39.6,55.9,30.0,9.8,93,44,21,0.00,0.00,13,3,13,0.00
2013-11-24,39.7,32.5,24.1,9.6,3.0,-2.0,42,28,21,0.00,0.00,19,3,19,0.00
2013-11-25,41.7,30.9,18.5,11.3,6.9,3.2,55,37,23,0.00,0.00,9,1,9,0.00
2013-11-26,43.0,36.9,33.6,42.5,32.0,10.1,98,84,33,0.00,0.00,8,0,8,2.68
2013-11-27,45.1,38.3,28.8,44.6,25.0,5.3,98,62,35,0.00,0.00,17,4,17,0.47
2013-11-28,44.2,31.1,21.6,15.8,12.0,5.1,68,46,29,0.00,0.00,9,1,9,0.00
2013-11-29,50.7,33.9,21.7,25.7,16.4,14.3,76,52,27,0.00,0.00,9,1,9,0.00
2013-11-30,47.3,33.6,25.7,20.3,16.8,13.9,75,53,29,0.00,0.00,6,0,6,0.00
2013-12-1,56.3,35.8,21.4,25.1,19.9,14.7,77,56,27,0.00,0.00,6,0,6,0.00
2013-12-2,58.5,42.0,26.8,33.9,27.3,20.5,79,59,31,0.00,0.00,6,0,6,0.00
2013-12-3,55.8,45.1,33.6,44.0,35.5,27.8,84,70,47,0.00,0.00,5,0,5,0.00
2013-12-4,61.0,54.0,48.9,55.0,50.8,44.0,98,89,69,0.00,0.00,6,0,6,0.00
2013-12-5,64.9,61.6,55.9,64.4,61.0,55.1,98,98,97,0.00,0.00,9,0,9,0.08
2013-12-6,75.7,69.6,63.0,65.8,58.5,49.9,98,70,41,0.00,0.00,16,3,16,0.16
2013-12-7,62.4,49.0,41.7,58.2,38.2,24.5,89,67,41,0.00,0.00,8,2,8,0.12
2013-12-8,41.7,35.4,33.3,31.8,28.3,20.4,93,77,47,0.00,0.00,9,1,9,0.35
2013-12-9,42.6,38.2,33.6,42.1,37.4,31.8,98,97,93,0.00,0.00,7,0,7,0.20
2013-12-10,50.4,40.6,27.9,48.2,33.3,17.3,98,79,37,0.00,0.00,10,1,13,0.43
2013-12-11,49.3,33.9,22.3,27.1,18.8,14.3,81,58,27,0.00,0.00,9,1,9,0.00
2013-12-12,46.2,34.2,25.5,23.5,14.7,7.0,73,47,26,0.00,0.00,8,1,8,0.00
2013-12-13,50.9,34.8,22.5,21.3,15.4,10.7,69,47,26,0.00,0.00,10,1,10,0.00
2013-12-14,38.5,36.8,35.2,36.9,31.4,21.3,98,82,56,0.00,0.00,10,0,10,0.63
2013-12-15,53.2,40.9,30.6,45.0,29.3,19.6,98,68,31,0.00,0.00,11,1,11,0.00
2013-12-16,54.3,37.9,27.7,34.4,24.8,21.9,86,63,30,0.00,0.00,9,1,9,0.00
2013-12-17,62.6,43.8,30.2,37.9,27.3,24.0,87,57,26,0.00,0.00,14,1,14,0.00
2013-12-18,49.6,37.7,28.4,27.7,15.8,10.2,70,42,24,0.00,0.00,10,1,10,0.00
2013-12-19,61.7,42.2,26.4,25.3,19.3,13.7,67,43,21,0.00,0.00,15,1,15,0.00
2013-12-20,65.3,50.8,39.0,43.8,29.1,21.1,72,44,27,0.00,0.00,15,1,15,0.00
2013-12-21,70.5,59.3,47.8,60.2,49.8,41.5,94,72,47,0.00,0.00,12,2,12,0.00
2013-12-22,70.7,65.6,61.2,68.1,61.1,58.9,98,86,70,0.00,0.00,11,2,12,0.91
2013-12-23,63.7,56.8,40.6,63.1,50.3,22.8,98,81,45,0.00,0.00,12,2,12,1.06
2013-12-24,46.9,37.6,27.3,23.1,15.0,3.6,60,40,28,0.00,0.00,11,2,11,0.00
2013-12-25,39.2,28.2,19.6,14.7,8.1,3.6,67,44,29,0.00,0.00,8,1,8,0.00
2013-12-26,52.7,34.1,20.5,20.4,14.4,9.4,72,48,26,0.00,0.00,11,1,11,0.00
2013-12-27,52.9,35.4,23.9,24.1,15.7,11.9,72,47,23,0.00,0.00,7,0,7,0.00
2013-12-28,56.8,38.8,23.7,38.3,21.7,14.3,85,55,25,0.00,0.00,9,0,9,0.08
2013-12-29,53.1,44.9,39.2,49.8,40.6,34.3,98,86,50,0.00,0.00,11,1,11,0.83
2013-12-30,49.6,41.1,33.3,45.4,30.9,23.8,95,70,43,0.00,0.00,8,0,8,0.00
2013-12-31,50.9,39.3,29.5,33.8,21.7,14.3,82,53,27,0.00,0.00,13,1,13,0.00
2014-1-1,48.2,33.8,25.7,25.9,20.2,17.6,78,59,32,0.00,0.00,5,0,5,0.00
2014-1-2,42.4,37.0,30.2,39.8,31.5,15.4,97,81,42,0.00,0.00,17,1,17,0.31